Location: Rooftop Observatory
(39.0308°N, 87.1711°W)
Time: 01:24:15
(UTC-05:00)

Daily predictions for brighter satellites

Satellite Brightness Start Highest point End
(mag) Time Altitude Azimuth Time Altitude Azimuth Time Altitude Azimuth
CZ-4C R/B 4.2 02:57:54 23° NNE 02:57:54 23° NNE 03:00:11 10° NNE
Cosmos 2297 Rocket 4.3 03:03:37 20° N 03:03:37 20° N 03:05:17 10° NNE
CZ-2D R/B 4.3 03:06:37 10° NNE 03:08:08 20° NNE 03:08:08 20° NNE
SL-16 R/B 4.5 03:32:47 17° NNW 03:32:47 17° NNW 03:34:01 10° NNW
Atlas Centaur 2 4.1 03:46:12 18° SE 03:46:12 18° SE 03:48:09 10° ESE
ARIANE 5 R/B 4.3 03:53:45 10° N 03:55:38 21° NNW 03:55:38 21° NNW
Cosmos 2227 Rocket 4.4 04:03:11 13° NNW 04:03:11 13° NNW 04:04:29 10° NNW
Okean O Rocket 4.0 03:58:16 10° NE 04:01:31 20° E 04:04:04 13° SE
Cosmos 1655 Rocket 3.9 03:56:53 10° N 04:02:59 82° NW 04:02:59 82° NW
Cosmos 614 Rocket 4.2 04:06:04 63° E 04:06:04 63° E 04:10:52 10° NNE
Cosmos 1428 Rocket 4.3 04:02:08 10° N 04:08:02 78° WNW 04:08:02 78° WNW
SL-8 R/B 4.5 04:09:29 46° ESE 04:09:29 46° ESE 04:13:26 10° ENE
ADEOS II 2.7 04:04:52 10° NNE 04:10:02 54° E 04:11:27 42° SSE
Cosmos 2263 Rocket 3.0 04:11:24 34° SSE 04:13:21 48° ESE 04:18:48 10° NE
DELTA 2 R/B (1) 3.4 04:19:29 85° W 04:19:38 89° N 04:25:14 10° E
SL-24 DEB 4.4 04:16:48 10° N 04:21:36 71° E 04:22:17 61° SSE
Resurs 1-4 Rocket 4.1 04:18:48 10° NNW 04:20:20 16° NNW 04:20:20 16° NNW
Cosmos 2084 4.3 04:26:07 38° ESE 04:26:07 38° ESE 04:28:46 10° SE
BREEZE-M R/B 4.0 04:35:48 42° SE 04:35:51 42° SE 04:41:31 10° ENE
Cosmos 1812 3.9 04:40:57 32° NNW 04:40:57 32° NNW 04:43:14 10° N
Cosmos 2279 Rocket 4.5 04:41:13 38° WNW 04:41:13 38° WNW 04:46:46 10° N
Cosmos 1607 3.9 04:38:46 38° SSW 04:41:23 86° ESE 04:47:46 10° NNE
ATLAS 3B R/B 4.1 04:34:57 10° S 04:41:41 38° ESE 04:48:13 10° NE
Tiangong 1 3.0 04:43:14 24° NE 04:43:14 24° NE 04:44:41 10° ENE
CZ-4C R/B 4.2 04:43:05 13° NW 04:44:17 14° NNW 04:47:23 10° N
CZ-3 R/B 3.8 04:35:17 23° SW 04:46:44 39° S 04:53:51 10° ESE
CZ-4B R/B 3.7 04:42:47 10° NNE 04:48:00 56° ESE 04:53:12 10° S
CZ-2D R/B 4.3 04:49:25 10° NW 04:49:27 10° NW 04:49:27 10° NW
ISS -1.6 04:54:23 16° SSE 04:54:23 16° SSE 04:55:14 10° SSE
PSLV R/B 3.3 04:49:16 10° N 04:53:29 83° WNW 04:55:04 38° SSW
Abrixas rocket 2.9 04:55:09 44° N 04:55:09 44° N 04:57:59 10° NE
Cosmos 1975 Rocket 3.0 04:54:22 44° SW 04:55:36 66° W 05:00:01 10° N
Cosmos 1544 Rocket 4.4 04:51:39 10° N 04:55:54 51° E 05:00:08 10° SSE
Cosmos 1500 3.0 04:55:56 10° NNW 04:59:39 63° W 05:00:31 46° SSW
Cosmos 1741 Rocket 3.9 04:59:45 31° SW 05:02:14 66° WNW 05:07:27 10° NNE
ASTEX 1 3.8 04:58:50 10° N 05:03:28 42° WNW 05:04:46 35° WSW
Cosmos 1975 2.8 04:59:25 10° N 05:03:31 89° ENE 05:07:37 10° S
Cosmos 1455 Rocket 3.7 04:59:39 10° N 05:03:56 56° E 05:08:10 10° SSE
Okean 1 3.5 05:11:49 34° SW 05:13:04 47° W 05:16:57 10° N
USA 215 4.4 05:07:06 10° E 05:13:07 41° NNE 05:19:09 10° NW
PSLV R/B 4.4 05:12:46 10° N 05:16:16 34° WNW 05:16:48 32° W
CZ-2C R/B 4.2 05:12:58 10° SSE 05:17:35 66° ENE 05:22:18 10° N
CZ-4B R/B 3.5 05:16:57 10° N 05:20:45 36° WNW 05:22:09 27° WSW
Cosmos 1536 Rocket 3.8 05:16:37 10° S 05:20:54 68° E 05:25:13 10° NNE
CZ-4B DEB 4.2 05:17:28 10° N 05:22:53 65° WNW 05:28:16 10° SSW
Meteor 1-31 Rocket 2.7 05:21:59 10° NNE 05:25:53 87° ESE 05:29:44 10° SSW
Atlas Centaur 2 3.0 05:28:50 16° SW 05:32:23 31° S 05:36:31 10° ESE
Landsat 4 3.7 05:32:16 10° S 05:36:02 59° WSW 05:39:49 10° NNW
CZ-4B R/B 3.7 05:33:52 10° N 05:37:43 71° WNW 05:41:45 10° SSW
Okean O Rocket 2.3 05:34:02 10° N 05:37:55 32° WNW 05:41:31 11° SW
Cosmos 1666 2.5 05:37:36 10° NNW 05:41:22 72° W 05:45:08 10° S
S3M 4.2 05:35:18 10° S 05:41:31 78° E 05:47:52 10° N
Intercosmos 25 Rocket 3.9 05:37:55 10° SSW 05:42:24 37° W 05:45:41 10° NNW
Cosmos 1763 Rocket 4.3 05:37:51 10° N 05:43:05 57° ENE 05:48:18 10° SSE
Cosmos 1743 3.0 05:42:40 10° NNW 05:46:26 46° W 05:50:10 10° SSW
Cosmos 1943 4.0 05:41:59 10° NW 05:46:47 29° WSW 05:51:33 10° SSW
USA 238 DEB 3.8 05:41:16 10° SSW 05:48:12 85° ESE 05:55:14 10° NE
USA 238 3.8 05:41:23 10° SSW 05:48:18 85° ESE 05:55:21 10° NE
IRS-1C Rocket 4.4 05:43:26 10° N 05:48:26 44° WNW 05:53:24 10° SW
ADEOS II 3.5 05:45:44 10° NNW 05:49:18 19° WNW 05:52:23 12° WSW
Cosmos 1844 Rocket 3.2 05:43:59 10° S 05:49:34 65° ESE 05:55:12 10° NNE
SL-8 R/B 4.4 05:47:29 14° W 05:51:25 43° NNW 05:56:00 10° NE
MTI 3.7 05:49:02 10° S 05:52:14 63° WSW 05:55:29 10° NNW
Feng Yun 1-1 Rocket 4.3 05:47:26 10° NNE 05:52:51 85° ESE 05:58:17 10° SSW
Cosmos 2263 Rocket 3.4 05:53:09 11° WSW 05:57:31 25° NW 06:02:08 10° N
Meteor 1-13 Rocket 4.5 05:52:16 10° SSW 05:58:04 55° WNW 06:03:55 10° N
Cosmos 1437 Rocket 4.4 05:55:46 10° NW 05:58:08 16° W 06:00:32 10° SW
USA 116 3.5 05:55:33 10° S 05:58:48 46° W 06:01:51 10° NNW
Cosmos 1025 Rocket 3.8 05:55:10 10° S 05:59:20 57° E 06:03:32 10° NNE
Cosmos 389 Rocket 4.4 05:59:25 10° N 06:02:37 34° ENE 06:05:49 10° SE
DELTA 2 R/B (1) 3.6 06:00:34 10° W 06:06:11 86° S 06:11:46 10° ESE
COSMO-SKYMED 1 2.6 06:03:10 10° SSE 06:07:29 89° E 06:11:51 10° NNW
Meteor 1-28 Rocket 3.3 06:04:26 10° S 06:08:03 52° W 06:11:44 10° NNW
BREEZE-M DEB (TANK) 2.7 06:04:08 10° NW 06:08:03 60° NNE 06:10:23 10° ESE
